Tracking 28794 objects as of 19-Apr-2024
HD Live streaming from Space Station
objects crossing your sky now

FENGYUN 2B AKM

Track FENGYUN 2B AKM now!


NORAD ID: 26460
Int'l Code: 2000-032C
Perigee: 35,730.0 km
Apogee: 35,934.2 km
Inclination: 14.0 °
Period: 1,438.1 minutes
Semi major axis: 42203 km
RCS: 7.9432 m2 (large)
Launch date: June 25, 2000
Source: People's Republic of China (PRC)
Launch site: Xichang Space Center, China (XSC)

Note: This is a ROCKET BODY
Your satellite tracking list
Your tracking list is empty




NASA's NSSDC Master Catalog

Two Line Element Set (TLE):
1 26460U 00032C   24109.20012041 -.00000250  00000-0  00000-0 0  9997
2 26460  14.0373  12.1846 0024192  28.5979 331.4974  1.00134980114270
Source of the keplerian elements: AFSPC